TimeCDT,TemperatureF,Dew PointF,Humidity,Sea Level PressureIn,VisibilityMPH,Wind Direction,Wind SpeedMPH,Gust SpeedMPH,PrecipitationIn,Events,Conditions,WindDirDegrees,DateUTC
12:15 AM,71.6,64.4,78,30.08,10.0,SE,8.1,-,N/A,,Partly Cloudy,140,2013-09-18 05:15:00
12:35 AM,71.6,64.4,78,30.08,10.0,SE,8.1,-,N/A,,Partly Cloudy,130,2013-09-18 05:35:00
12:55 AM,69.8,64.4,83,30.08,10.0,SE,9.2,-,N/A,,Clear,130,2013-09-18 05:55:00
1:15 AM,71.6,64.4,78,30.08,10.0,SE,10.4,-,N/A,,Clear,140,2013-09-18 06:15:00
1:35 AM,71.6,64.4,78,30.08,10.0,SE,10.4,-,N/A,,Clear,140,2013-09-18 06:35:00
1:55 AM,69.8,64.4,83,30.08,10.0,SE,10.4,-,N/A,,Partly Cloudy,140,2013-09-18 06:55:00
2:15 AM,71.6,64.4,78,30.07,10.0,SE,11.5,-,N/A,,Mostly Cloudy,140,2013-09-18 07:15:00
2:35 AM,69.8,64.4,83,30.07,10.0,SE,10.4,-,N/A,,Scattered Clouds,140,2013-09-18 07:35:00
2:55 AM,69.8,64.4,83,30.07,10.0,SE,9.2,-,N/A,,Clear,140,2013-09-18 07:55:00
3:15 AM,69.8,64.4,83,30.08,10.0,SE,8.1,-,N/A,,Mostly Cloudy,140,2013-09-18 08:15:00
3:35 AM,68.0,64.4,88,30.07,10.0,SE,6.9,-,N/A,,Overcast,140,2013-09-18 08:35:00
3:55 AM,68.0,64.4,88,30.07,10.0,SSE,5.8,-,N/A,,Overcast,150,2013-09-18 08:55:00
4:15 AM,68.0,64.4,88,30.07,10.0,SE,4.6,-,N/A,,Overcast,140,2013-09-18 09:15:00
4:35 AM,68.0,64.4,88,30.06,10.0,SE,4.6,-,N/A,,Overcast,140,2013-09-18 09:35:00
4:55 AM,68.0,64.4,88,30.06,10.0,SSE,6.9,-,N/A,,Mostly Cloudy,150,2013-09-18 09:55:00
5:15 AM,68.0,62.6,83,30.06,10.0,South,4.6,-,N/A,,Overcast,170,2013-09-18 10:15:00
5:35 AM,68.0,64.4,88,30.06,4.0,SSE,11.5,18.4,0.08,Rain,Light Rain,150,2013-09-18 10:35:00
5:55 AM,68.0,64.4,88,30.06,10.0,SSE,9.2,-,0.08,,Overcast,160,2013-09-18 10:55:00
6:15 AM,68.0,64.4,88,30.06,10.0,SSE,6.9,-,N/A,,Overcast,160,2013-09-18 11:15:00
6:35 AM,68.0,64.4,88,30.06,10.0,SSE,6.9,-,N/A,,Overcast,160,2013-09-18 11:35:00
6:55 AM,68.0,64.4,88,30.06,8.0,South,3.5,-,N/A,,Overcast,180,2013-09-18 11:55:00
7:45 AM,68.0,64.4,88,30.07,10.0,SSE,5.8,-,N/A,,Overcast,160,2013-09-18 12:45:00
8:45 AM,71.6,64.4,78,30.08,10.0,SSE,6.9,-,N/A,,Overcast,160,2013-09-18 13:45:00
9:45 AM,71.6,64.4,78,30.09,10.0,SE,5.8,-,N/A,,Mostly Cloudy,140,2013-09-18 14:45:00
10:45 AM,73.4,64.4,73,30.09,10.0,SSE,8.1,-,N/A,,Overcast,160,2013-09-18 15:45:00
11:45 AM,77.0,68.0,74,30.08,10.0,SSE,4.6,-,N/A,,Overcast,150,2013-09-18 16:45:00
12:47 PM,80.6,68.0,65,30.07,10.0,South,4.6,-,N/A,,Overcast,170,2013-09-18 17:47:00
1:45 PM,84.2,68.0,58,30.05,10.0,South,8.1,-,N/A,,Overcast,180,2013-09-18 18:45:00
2:47 PM,82.4,66.2,58,30.04,10.0,Calm,Calm,-,N/A,,Overcast,0,2013-09-18 19:47:00
3:52 PM,86.0,68.0,55,30.02,10.0,SE,4.6,-,N/A,,Mostly Cloudy,140,2013-09-18 20:52:00
4:50 PM,86.0,69.8,58,30.01,10.0,SSW,8.1,-,N/A,,Mostly Cloudy,210,2013-09-18 21:50:00
5:55 PM,84.2,69.8,62,30.01,10.0,SSE,5.8,-,N/A,,Mostly Cloudy,160,2013-09-18 22:55:00
6:49 PM,80.6,71.6,74,30.01,10.0,ESE,5.8,-,N/A,,Mostly Cloudy,120,2013-09-18 23:49:00
7:45 PM,77.0,71.6,83,30.01,10.0,SE,4.6,-,N/A,,Mostly Cloudy,130,2013-09-19 00:45:00
9:15 PM,77.0,69.8,78,30.02,10.0,SSE,8.1,-,N/A,,Clear,160,2013-09-19 02:15:00
9:35 PM,77.0,68.0,74,30.02,10.0,SSE,8.1,-,N/A,,Clear,160,2013-09-19 02:35:00
9:55 PM,77.0,66.2,69,30.02,10.0,SSE,8.1,-,N/A,,Partly Cloudy,150,2013-09-19 02:55:00
10:15 PM,77.0,66.2,69,30.02,10.0,SSE,5.8,-,N/A,,Partly Cloudy,160,2013-09-19 03:15:00
10:35 PM,77.0,66.2,69,30.02,10.0,South,5.8,-,N/A,,Partly Cloudy,170,2013-09-19 03:35:00
10:55 PM,75.2,64.4,69,30.02,10.0,Calm,Calm,-,N/A,,Clear,0,2013-09-19 03:55:00
11:15 PM,75.2,64.4,69,30.02,10.0,Calm,Calm,-,N/A,,Clear,0,2013-09-19 04:15:00
11:35 PM,73.4,64.4,73,30.02,10.0,SSE,5.8,-,N/A,,Clear,150,2013-09-19 04:35:00
11:55 PM,73.4,64.4,73,30.01,10.0,SSE,3.5,-,N/A,,Clear,160,2013-09-19 04:55:00